Location: St. Louis
(38.6270°N, 90.1994°W)
Time: 23:39:26
(UTC-05:00)

OPS 7613 P/L 1 - Pass Details

Date: 07 July 2022
Orbit: 887 x 911 km, 70.0° (Epoch: 16 August)

Event Time Altitude Azimuth Distance (km) Brightness Sun altitude
Rises 04:13:09 0° 339° (NNW) 3,506 11.8 -14.7°
Reaches altitude 10° 04:15:41 10° 343° (NNW) 2,560 11.1 -14.4°
Maximum altitude 04:21:31 59° 63° (ENE) 1,015 8.9 -13.6°
Drops below altitude 10° 04:27:18 10° 143° (SE) 2,541 10.6 -12.7°
Sets 04:29:48 0° 147° (SSE) 3,477 11.3 -12.4°
